Pierre, SD

3:42 PM CST on December 13, 2017 (GMT -0600)
Pierre Regional

Weather History for KPIR - June, 2014

Change the Weather History Date:

Thursday, June 5, 2014

  Actual Average Record
Temperature  
Mean Temperature 67 °F 64 °F  
Max Temperature 78 °F 76 °F 98 °F (1969)
Min Temperature 56 °F 52 °F 38 °F (2000)
Degree Days  
Heating Degree Days 0 3  
Month to date heating degree days 12 18  
Since 1 June heating degree days 12 18  
Since 1 July heating degree days 7972 7255  
Cooling Degree Days 2 2  
Month to date cooling degree days 2 10  
Year to date cooling degree days 50 42  
Since 1 June cooling degree days 2 10  
Growing Degree Days 17 (Base 50)    
Moisture  
Dew Point 55 °F    
Average Humidity 68    
Maximum Humidity 93    
Minimum Humidity 43    
Precipitation  
Precipitation 0.00 in 0.13 in 1.67 in (1919)
Month to date precipitation 0.43 0.66  
Year to date precipitation 8.36 7.86  
Sea Level Pressure  
Sea Level Pressure 29.83 in    
Wind  
Wind Speed 7 mph (West)    
Max Wind Speed 15 mph    
Max Gust Speed 18 mph    
Visibility 10 miles    
Events      
T = Trace of Precipitation, MM = Missing Value Source: NWS Daily Summary

Daily Weather History Graph

Daily Weather History Graph

Search for Another Location

Airport or City:

Trip Planner

Search our weather history database for the weather conditions in past years. The results will help you decide how hot, cold, wet, or windy it might be!

Date:

Astronomy

Jun. 05, 2014 Rise Set
Actual Time 5:58 AM CDT 9:21 PM CDT
Civil Twilight 5:22 AM CDT 9:57 PM CDT
Nautical Twilight 4:34 AM CDT 10:45 PM CDT
Astronomical Twilight 3:35 AM CDT 11:44 PM CDT
Moon 1:29 PM CDT (6/5) 1:38 AM CDT (6/5)
Length of Visible Light 16h 35m
Length of Day
15h 23m
Waxing Crescent, 49% of the Moon is Illuminated
Jun 5
Waxing Crescent
Jun 5
First Quarter
Jun 12
Full
Jun 19
Last Quarter
Jun 27
New

Hourly Weather History & Observations

Time (CDT) Temp. Dew Point Humidity Pressure Visibility Wind Dir Wind Speed Gust Speed Precip Events Conditions
12:53 AM 62.1 °F 55.9 °F 80% 29.84 in 10.0 mi SW 8.1 mph - N/A   Clear
1:53 AM 60.1 °F 55.9 °F 86% 29.82 in 10.0 mi SSW 6.9 mph - N/A   Clear
2:53 AM 60.1 °F 55.0 °F 83% 29.82 in 10.0 mi SW 5.8 mph - N/A   Clear
3:53 AM 59.0 °F 55.0 °F 87% 29.79 in 10.0 mi SSW 4.6 mph - N/A   Clear
4:53 AM 57.9 °F 55.0 °F 90% 29.78 in 10.0 mi WSW 11.5 mph - N/A   Clear
5:53 AM 57.0 °F 55.0 °F 93% 29.78 in 10.0 mi West 12.7 mph - N/A   Clear
6:53 AM 57.0 °F 55.0 °F 93% 29.81 in 10.0 mi West 8.1 mph - N/A   Clear
7:53 AM 60.1 °F 55.9 °F 86% 29.82 in 10.0 mi West 10.4 mph - N/A   Clear
8:53 AM 64.0 °F 57.0 °F 78% 29.83 in 10.0 mi West 10.4 mph - N/A   Clear
9:53 AM 64.9 °F 55.9 °F 73% 29.84 in 10.0 mi West 6.9 mph - N/A   Clear
10:53 AM 68.0 °F 55.9 °F 65% 29.83 in 10.0 mi WNW 9.2 mph - N/A   Clear
11:53 AM 70.0 °F 55.0 °F 59% 29.85 in 10.0 mi West 10.4 mph - N/A   Clear
12:53 PM 72.0 °F 57.9 °F 61% 29.84 in 10.0 mi NW 11.5 mph - N/A   Clear
1:53 PM 73.9 °F 55.9 °F 53% 29.84 in 10.0 mi NW 10.4 mph - N/A   Clear
2:53 PM 75.0 °F 57.9 °F 55% 29.83 in 10.0 mi NW 11.5 mph - N/A   Clear
3:53 PM 75.9 °F 57.9 °F 54% 29.83 in 10.0 mi WNW 8.1 mph - N/A   Clear
4:53 PM 75.9 °F 55.0 °F 48% 29.83 in 10.0 mi West 8.1 mph - N/A   Clear
5:53 PM 77.0 °F 54.0 °F 45% 29.83 in 10.0 mi NW 8.1 mph - N/A   Clear
6:53 PM 75.9 °F 53.1 °F 45% 29.82 in 10.0 mi NW 5.8 mph - N/A   Clear
7:53 PM 73.9 °F 55.9 °F 53% 29.83 in 10.0 mi NNW 5.8 mph - N/A   Clear
8:53 PM 71.1 °F 57.0 °F 61% 29.83 in 10.0 mi NW 3.5 mph - N/A   Clear
9:53 PM 71.1 °F 53.1 °F 53% 29.85 in 10.0 mi Calm Calm - N/A   Clear
10:53 PM 64.0 °F 53.1 °F 67% 29.86 in 10.0 mi South 3.5 mph - N/A   Clear
11:53 PM 62.1 °F 53.1 °F 72% 29.87 in 10.0 mi Calm Calm - N/A   Clear